Location: Maccacari
(45.1333°N, 11.1333°E)
Time: 10:56:00
(UTC+00:00)

A-11 Canister half - Pass Details

Date: 22 January 2021
Orbit: 1524 x 1684 km, 47.3° (Epoch: 24 February)

Event Time Altitude Azimuth Distance (km) Brightness Sun altitude
Rises 17:14:22 0° 273° (W) 4,709 13.1 -11.5°
Reaches altitude 10° 17:17:24 10° 274° (W) 3,742 12.3 -12.0°
Maximum altitude 17:26:56 79° 2° (N) 1,622 9.1 -13.6°
Enters shadow 17:34:47 18° 88° (E) 3,239 10.1 -15.0°
